Miscellaneous Local Product
Issued by NWS Hastings, NE

Home | Current Version | Previous Version | Graphics & Text | Print | Product List | Glossary On
Versions: 1 2 3 4 5 6 7 8 9 10 11 12 13 14 15 16 17 18 19 20 21 22 23 24 25 26 27 28 29 30 31 32 33 34 35 36 37 38 39 40 41 42 43 44 45 46 47 48 49 50
331
AXUS43 KGID 190902
MISGRI

GID CWA HOURLY WEATHER ROUNDUP
NATIONAL WEATHER SERVICE HASTINGS NE
300 AM CST SUN FEB 19 2017

NOTE: "FAIR" INDICATES FEW OR NO CLOUDS BELOW 12,000 FEET WITH NO
SIGNIFICANT WEATHER AND/OR OBSTRUCTIONS TO VISIBILITY.

...SOUTH CENTRAL NEBRASKA...

CITY           SKY/WX    TMP DP  RH WIND       PRES   REMARKS
GRAND ISLAND   PTCLDY    47  41  80 S9        29.80S
HASTINGS       PTCLDY    49  41  74 S10       29.82R
KEARNEY        MOCLDY    43  36  75 S5        29.80S
ORD            PTCLDY    38  31  76 SE3       29.76S
YORK           PTCLDY    43  37  81 S8        29.83R
AURORA         PTCLDY    42  36  80 S7        29.81R
LEXINGTON      CLOUDY    47  37  70 S14       29.77R
HOLDREGE       PTCLDY    45  39  78 S13       29.79R
HEBRON         CLOUDY    50  45  82 S8        29.84R

...NEBRASKA PANHANDLE...

CITY           SKY/WX    TMP DP  RH WIND       PRES   REMARKS
CHADRON        CLOUDY    46  31  55 S13       29.60F
ALLIANCE       CLOUDY    39  32  76 SE7       29.63F WCI  34
SCOTTSBLUFF    CLOUDY    40  30  67 SE12      29.63F WCI  33
SIDNEY         CLOUDY    45  26  47 S12       29.65S

...WESTERN AND NORTH CENTRAL NEBRASKA...

CITY           SKY/WX    TMP DP  RH WIND       PRES   REMARKS
VALENTINE      MOCLDY    44  33  65 S3        29.69S
AINSWORTH      MOCLDY    44  35  71 S10       29.71R
ONEILL         CLEAR     42  33  71 SE8       29.75S
BROKEN BOW     CLOUDY    35  30  82 CALM      29.75R
IMPERIAL       CLOUDY    48  31  51 SE14      29.71S
NORTH PLATTE   PTCLDY    46  34  62 SE6       29.73S
MCCOOK         CLOUDY    50  37  61 SW6       29.76R

...EASTERN NEBRASKA...

CITY           SKY/WX    TMP DP  RH WIND       PRES   REMARKS
NORFOLK        CLEAR     45  34  65 SE12      29.78S
SO SIOUX CITY  CLOUDY    36  31  82 E8        29.82S WCI  30
TEKAMAH        PTCLDY    36  32  85 S5        29.84S WCI  32
COLUMBUS       PTCLDY    37  30  75 CALM      29.82R
ALBION         MOCLDY    42  32  69 SE6       29.79S
OMAHA EPPLEY   MOCLDY    43  34  70 S3        29.84R
OFFUTT AFB     CLOUDY    36  35  96 CALM      29.84R
MILLARD        PTCLDY    42  34  75 CALM      29.84S
LINCOLN        CLOUDY    38  30  73 CALM      29.85R
NEBRASKA CITY  CLOUDY    45  33  63 S8        29.85S
BEATRICE       MOCLDY    46  40  78 S3        29.86R
FALLS CITY     CLEAR     50  45  83 SW9       29.85F

...NORTHERN KANSAS...

CITY           SKY/WX    TMP DP  RH WIND       PRES   REMARKS
GOODLAND       CLOUDY    47  34  60 S17       29.71F
HILL CITY      CLEAR     46  43  89 S5        29.80S
NORTON         SUNNY     50  39  66 S9        29.78R
PHILLIPSBURG   CLEAR     48  43  81 CALM      29.81S
SMITH CENTER   CLEAR     48  45  87 S9        29.83R
HAYS           CLOUDY    44  43  96 CALM      29.83S FOG
RUSSELL        PTCLDY    48  45  89 S12       29.82R
CONCORDIA      CLOUDY    51  47  86 S16       29.85R
SALINA         CLEAR     51  47  86 S8        29.87R
TOPEKA         CLEAR     45  42  89 E7        29.86F



USA.gov is the U.S. government's official web portal to all federal, state and local government web resources and services.